Location: Janeiro
(34.9957°N, 76.7652°W)
Time: 06:02:32
(UTC+00:00)

Cosmos 1741 Rocket - Pass Details

Date: 14 December 2019
Orbit: 762 x 782 km, 74.0° (Epoch: 26 January)

Event Time Altitude Azimuth Distance (km) Brightness Sun altitude
Rises 23:26:23 0° 185° (S) 3,231 7.5 -17.9°
Reaches altitude 10° 23:28:47 10° 181° (S) 2,305 6.7 -18.3°
Maximum altitude 23:33:54 57° 104° (ESE) 899 4.0 -19.3°
Enters shadow 23:36:03 33° 41° (NE) 1,268 4.7 -19.8°
